Theta_e
304 304 303 303 303 304 304 304 304 304 304 304 304 305 305 305 305 305 305 304 305 305 304 305 306 306 307 307 307 308 304 303 305 306 309 315 317 314 314 316 315 314 315 314 315 316 317 315 315 313 312 314 313 315 317 316 322 321 325 330 328 327 327 327 329 327 327 327 324 325 328 330 331 330 329 327 327 328 331 340 343 341 341 336 331 331 333 336
304 305 304 303 303 304 304 304 304 304 304 304 304 304 304 305 305 305 305 304 305 306 305 305 305 306 307 306 307 307 303 302 305 307 313 319 318 316 317 316 313 315 316 315 316 317 317 317 316 313 313 315 314 314 318 319 319 322 328 330 326 325 326 327 325 323 324 323 322 323 325 329 332 331 328 330 330 328 332 339 344 351 343 333 332 332 335 336
304 304 304 303 303 304 304 304 304 304 304 304 304 304 304 304 305 305 305 304 305 305 305 306 305 305 306 306 307 305 302 304 306 311 319 319 310 312 317 315 314 316 316 316 317 316 317 318 316 314 313 313 313 313 315 318 319 323 326 326 326 326 324 323 322 323 323 320 322 322 324 328 332 332 327 330 333 328 331 340 345 354 347 337 336 334 335 335
304 304 304 303 303 304 303 304 304 304 304 304 304 304 304 304 304 305 305 305 305 305 305 305 305 305 305 306 305 302 302 305 309 315 319 314 306 308 313 314 316 316 316 316 315 316 316 317 315 314 314 313 315 313 312 316 320 323 323 324 330 327 322 322 321 322 322 319 320 322 325 325 327 329 328 330 334 330 329 335 342 350 345 337 337 335 334 334
304 304 304 303 303 303 303 303 304 304 304 304 304 304 304 304 304 304 304 304 304 305 305 305 305 305 305 306 302 300 303 304 311 317 313 309 307 308 310 312 316 317 316 316 315 315 315 316 315 315 315 315 318 314 313 315 316 321 320 322 329 325 321 322 321 321 321 320 320 324 324 323 324 324 329 332 332 331 329 329 333 340 339 335 336 335 334 334
303 304 304 303 303 303 303 303 304 304 304 304 304 304 304 304 304 304 303 303 304 305 305 305 305 304 306 305 300 302 306 302 307 311 306 306 308 307 308 310 315 316 316 316 314 314 316 316 316 317 315 316 317 313 312 313 312 316 319 321 324 322 321 321 320 321 322 322 321 323 322 324 325 323 328 331 330 333 334 330 331 337 335 333 335 334 335 336
303 303 304 303 303 303 303 303 303 303 303 303 304 304 304 304 304 304 304 303 304 304 304 305 304 305 306 303 300 304 307 305 302 303 305 306 306 305 305 308 312 312 314 316 315 314 317 317 318 318 316 316 317 313 312 313 312 312 316 319 318 319 320 319 319 319 322 324 325 324 322 323 326 325 326 329 332 335 333 329 330 337 334 332 335 335 336 335
303 303 303 303 303 303 303 303 303 303 303 303 303 304 304 304 304 304 304 304 303 303 304 305 304 305 305 303 303 304 305 305 301 301 304 302 301 302 302 306 309 309 311 315 316 315 316 318 319 318 317 317 318 317 317 317 315 312 313 315 314 317 319 318 318 318 320 324 326 325 323 325 327 326 325 329 334 334 331 328 330 336 336 334 335 335 335 334
303 303 303 303 303 303 303 303 303 303 303 303 303 303 303 303 303 303 303 303 303 303 304 304 304 305 304 303 303 302 302 302 298 299 301 298 299 300 301 306 307 308 310 311 314 315 316 318 319 317 317 319 319 320 320 318 317 313 312 314 314 316 317 317 319 320 320 320 322 323 323 326 327 324 323 328 331 330 328 328 331 336 338 337 335 335 335 335
303 303 303 303 303 303 303 303 303 303 303 303 303 303 303 303 302 301 301 302 303 303 304 305 304 304 304 304 303 302 300 299 298 299 300 300 300 299 301 304 304 306 309 309 310 314 317 317 317 317 317 318 318 319 319 318 319 317 316 316 315 315 316 318 319 319 319 319 321 322 323 325 324 322 323 326 328 326 324 326 330 335 339 337 335 335 334 334
303 303 303 303 303 303 302 302 302 302 303 303 303 303 302 301 300 300 301 301 302 304 305 304 304 304 304 304 303 303 300 298 300 301 303 303 303 303 303 303 303 304 307 309 309 311 315 316 316 316 316 318 317 317 317 316 318 319 320 319 317 316 316 317 318 318 318 319 323 323 323 324 322 322 322 324 327 326 324 325 328 334 338 336 336 335 334 334
303 303 303 303 303 303 302 302 302 302 302 302 303 302 300 299 299 299 300 300 301 304 305 304 304 304 304 303 302 302 299 299 301 303 305 305 306 306 306 306 306 305 306 308 309 310 311 313 316 317 318 317 317 318 317 315 316 319 320 321 321 317 315 316 317 317 316 319 324 323 322 322 321 322 322 323 324 323 324 324 325 331 335 334 335 335 334 333
302 303 302 302 303 302 302 302 302 302 302 302 302 301 299 299 299 299 299 300 302 305 306 305 305 304 304 303 302 300 300 301 302 304 306 306 306 306 306 307 308 308 307 307 309 309 309 312 316 319 318 317 317 318 316 313 315 319 320 320 320 316 315 315 316 317 315 318 323 321 320 320 319 320 321 322 322 322 323 323 322 325 330 332 333 334 334 333
302 303 302 302 302 302 302 302 302 302 302 302 302 300 299 298 299 299 298 300 304 305 305 305 305 304 303 302 301 300 301 302 303 305 304 303 305 305 304 305 307 308 309 308 308 307 309 313 317 318 317 317 317 316 315 314 316 320 321 321 321 317 314 316 317 317 315 316 321 321 320 319 317 319 322 321 321 322 321 321 321 321 323 326 330 333 334 333
301 301 301 302 302 302 302 302 302 302 302 302 301 299 299 298 299 299 299 302 304 303 301 302 303 304 304 303 301 301 301 301 303 304 302 300 303 305 303 304 306 308 309 309 308 307 310 315 317 318 318 317 316 316 318 318 318 321 322 323 324 319 315 317 319 316 313 314 318 321 321 320 318 319 321 320 320 321 320 319 319 319 320 322 325 329 332 332
299 299 299 301 302 302 302 303 303 302 302 301 299 299 299 299 299 299 302 304 303 300 298 301 303 303 306 306 302 301 302 303 303 301 300 300 302 303 303 305 306 307 308 309 308 308 311 315 316 317 318 317 316 316 318 319 319 319 320 322 324 322 319 320 320 316 314 313 315 318 318 320 323 322 319 318 319 319 320 319 318 318 319 320 321 324 328 331
298 298 298 300 302 302 302 303 302 301 301 300 299 299 299 298 299 300 302 302 299 299 299 301 303 302 305 305 301 301 302 301 300 299 299 299 300 301 305 307 307 308 308 308 309 310 313 315 317 317 317 318 318 317 317 318 316 315 317 319 321 322 321 321 321 318 316 313 313 316 315 315 320 323 319 318 318 318 319 319 318 318 317 319 321 321 324 326
298 298 297 298 300 302 302 303 302 301 300 300 299 299 299 299 300 302 301 298 298 301 302 302 302 303 304 302 300 299 299 299 299 299 300 299 300 304 307 308 309 309 310 310 311 314 315 316 318 318 317 317 317 317 316 315 313 313 315 316 318 319 319 320 319 317 315 312 312 314 315 313 315 317 317 317 318 318 318 317 318 318 317 318 320 322 323 324
298 297 297 298 299 300 302 303 302 300 300 300 299 299 299 298 301 302 299 298 299 300 301 301 300 300 301 300 299 299 299 299 300 300 300 300 303 306 307 308 309 310 311 312 313 316 316 315 316 317 317 317 316 316 315 314 313 314 314 314 315 315 316 317 317 316 315 313 312 312 313 314 314 315 314 315 317 319 320 319 319 318 318 318 319 321 322 324
298 297 297 298 298 298 301 302 301 300 300 300 299 300 300 299 301 302 299 299 300 298 298 299 298 299 301 301 300 299 300 300 301 301 301 302 303 305 306 308 310 310 310 311 311 314 314 314 314 314 315 315 315 315 315 315 316 315 316 315 315 314 314 314 315 317 314 313 314 313 312 312 313 315 315 314 315 317 320 320 321 320 319 319 319 320 321 323
298 297 297 298 298 298 300 301 300 300 300 300 300 300 301 300 300 300 300 300 299 298 299 299 298 299 300 300 299 299 300 301 301 301 302 303 303 305 307 309 310 310 310 310 310 312 312 312 312 312 313 314 315 315 315 315 315 316 317 317 316 316 315 314 314 315 314 314 315 315 315 313 312 314 315 316 316 316 317 318 319 319 320 320 319 320 320 320
297 297 297 297 297 297 299 300 301 301 300 300 300 300 300 300 300 300 300 300 299 297 298 298 298 300 300 299 300 300 300 303 304 303 303 305 305 306 307 309 309 308 308 309 310 310 311 312 311 311 313 314 315 315 315 314 314 315 316 316 317 315 314 314 314 314 315 316 319 318 317 315 314 316 317 317 316 317 317 317 318 319 320 320 319 320 319 320
296 297 297 296 297 297 297 300 301 300 300 300 300 300 300 300 301 300 300 300 300 299 299 300 301 303 303 301 301 302 302 304 305 305 304 304 307 307 307 308 308 307 307 309 308 308 310 310 309 310 312 314 315 315 316 315 314 314 315 315 315 314 314 314 315 316 316 316 318 318 317 316 316 317 317 315 315 315 317 317 318 319 319 319 319 319 319 320
296 296 296 295 296 295 297 300 301 300 300 300 300 300 300 300 301 300 300 300 301 300 299 300 300 302 304 302 301 303 304 304 304 305 303 302 306 307 307 308 307 306 307 307 308 308 309 308 308 310 311 313 315 315 316 316 316 315 314 314 314 314 314 313 314 315 314 314 315 315 316 316 316 318 316 314 314 313 314 315 315 317 317 318 319 320 320 320
296 296 296 295 295 295 296 300 301 300 300 300 301 301 300 300 300 301 300 298 301 302 299 299 299 301 303 302 302 303 303 304 304 304 301 301 303 304 306 307 307 308 307 307 309 309 308 308 308 309 309 311 314 315 315 316 317 316 315 315 314 314 314 313 314 315 315 317 316 315 318 318 317 318 317 315 315 313 312 314 314 315 315 316 317 318 319 320
295 295 295 295 295 295 297 301 301 300 301 301 301 301 301 301 300 301 299 299 304 305 300 300 302 302 302 302 304 303 302 305 305 301 301 302 302 302 305 307 307 307 308 309 309 309 310 310 309 309 309 310 311 313 314 314 316 317 317 316 315 315 315 315 315 316 319 321 316 312 315 317 315 316 317 315 314 313 312 313 314 313 313 314 315 315 317 318
294 295 295 294 294 296 299 301 300 300 301 301 301 301 301 300 300 300 299 301 304 300 298 302 302 302 301 301 303 303 302 304 303 301 303 303 303 303 304 306 307 307 308 308 308 308 310 310 310 310 309 309 310 310 311 313 315 316 316 317 317 316 316 316 317 317 320 320 317 313 313 314 313 313 315 313 312 312 310 311 311 311 311 312 313 314 315 317
294 294 294 294 294 297 300 300 300 301 301 301 301 301 301 300 300 300 301 300 299 297 300 304 302 301 300 299 302 303 303 303 303 304 303 302 304 305 305 305 306 306 307 307 306 307 308 309 311 311 310 310 309 309 310 311 314 315 315 316 316 316 316 316 316 317 317 318 319 317 314 315 314 312 312 310 309 310 310 309 308 308 309 309 311 312 313 315
293 293 294 293 294 297 300 300 300 301 301 301 301 300 300 300 299 301 303 300 296 296 300 302 301 300 299 298 300 304 306 304 303 304 303 302 303 304 306 306 305 306 306 306 306 306 306 308 310 310 309 309 308 309 309 309 312 314 314 314 315 315 315 315 316 317 317 317 318 317 314 316 316 312 311 310 309 310 309 309 308 307 307 307 308 309 310 312
293 293 293 293 294 297 299 300 300 301 301 301 300 299 299 300 301 303 304 300 296 296 299 301 299 298 299 299 299 303 305 303 304 304 304 305 304 304 305 305 304 305 305 306 306 305 305 306 307 308 309 308 309 309 309 309 310 312 313 314 316 315 314 316 316 316 318 319 318 317 315 315 316 314 311 310 310 310 309 308 309 308 308 308 307 307 308 309
292 293 293 293 294 297 299 300 301 301 301 301 300 299 299 300 302 303 301 297 296 299 301 300 299 298 299 299 299 302 303 303 305 304 302 304 304 304 305 305 304 304 305 306 306 305 305 305 306 309 308 309 311 310 309 310 310 310 312 314 316 315 315 316 316 315 319 320 318 317 316 315 316 315 310 309 311 311 309 308 308 308 309 308 308 307 307 308
293 293 293 294 295 297 299 300 301 301 301 301 300 299 301 301 301 301 298 297 298 299 299 299 298 299 299 299 299 300 301 303 304 302 301 303 303 302 303 305 304 303 303 305 305 305 306 306 307 308 309 310 311 311 311 311 311 311 312 313 314 316 317 318 317 317 319 319 317 318 317 315 315 314 311 310 310 310 309 308 307 307 307 307 307 307 307 307
294 295 294 295 297 298 300 300 301 301 301 300 300 301 303 303 301 299 298 299 298 298 298 299 299 299 299 299 299 300 302 302 301 300 300 301 301 300 302 305 306 304 302 303 304 304 305 307 306 307 310 309 309 310 310 309 310 311 311 312 313 315 317 319 318 318 319 318 317 317 317 317 316 314 314 313 310 311 311 310 309 308 306 306 306 306 307 308
295 296 295 297 298 299 300 300 301 302 300 300 302 303 302 301 300 299 300 301 298 298 299 299 300 299 300 300 299 299 302 302 301 300 299 300 300 299 302 304 305 305 304 304 304 304 305 307 306 306 306 304 305 308 308 308 310 311 312 312 313 313 315 317 317 317 317 317 315 314 316 318 317 316 316 314 312 311 311 311 311 310 308 307 306 306 307 308
295 295 297 299 300 300 301 301 302 301 300 301 303 302 300 300 299 299 301 301 299 299 300 299 299 300 301 302 301 299 299 301 302 300 300 300 298 299 302 304 304 304 303 303 303 304 304 305 305 304 302 302 306 308 308 309 311 311 312 313 312 313 313 314 315 314 314 314 314 313 315 317 315 313 314 313 313 313 312 311 310 310 309 308 308 307 307 307
294 295 298 301 301 300 299 300 302 300 300 302 302 300 299 301 300 299 300 300 299 299 300 299 300 300 301 302 302 300 298 300 301 300 299 299 299 300 302 303 304 304 303 302 303 303 302 302 301 301 302 305 306 306 308 310 311 311 312 312 312 313 313 313 313 313 312 313 315 314 314 315 313 313 313 312 312 312 313 312 309 309 308 308 308 308 308 308
294 295 298 301 302 300 298 299 301 300 300 301 301 299 300 300 300 300 300 299 299 299 300 300 300 299 300 300 301 300 299 300 300 299 299 299 300 301 300 302 304 304 304 302 302 302 300 300 301 300 304 307 304 304 307 309 309 310 310 310 310 311 313 314 313 314 314 314 314 313 314 314 314 316 315 312 312 313 313 312 311 311 310 308 308 308 307 307
294 295 298 301 302 299 297 299 300 300 300 300 299 300 301 300 299 299 299 299 299 299 300 301 300 299 299 299 300 300 299 300 299 299 299 298 300 300 298 301 303 305 306 302 301 303 301 300 302 301 303 303 302 306 308 307 308 309 309 309 309 310 312 313 313 313 314 315 315 314 314 313 313 315 315 313 315 315 313 311 311 311 311 309 308 307 307 306
295 297 299 301 301 299 298 299 299 299 300 299 299 299 300 300 300 300 299 299 299 299 300 301 300 300 299 300 300 299 299 300 299 299 298 298 299 299 298 301 302 303 305 302 302 303 301 301 302 303 301 300 303 309 308 306 307 309 309 309 309 310 311 312 312 312 312 314 314 314 315 315 315 315 314 313 312 311 310 309 309 309 308 308 307 308 307 306
295 298 300 301 300 299 298 298 299 300 300 300 300 300 299 299 299 301 301 299 299 300 300 301 300 300 301 301 300 299 299 299 299 298 299 299 299 299 300 302 301 300 302 302 303 302 301 300 301 302 301 300 304 307 304 303 304 305 306 308 309 310 310 310 311 310 312 314 314 314 314 317 319 315 311 310 309 308 309 309 308 308 307 307 308 309 308 307
294 297 300 300 300 298 297 298 299 299 299 298 300 300 299 299 299 301 302 299 299 300 299 299 300 300 301 300 299 299 298 299 299 299 299 300 299 299 301 301 299 299 299 301 302 301 300 301 301 302 302 300 301 302 301 300 300 301 303 306 308 309 308 309 309 309 310 310 311 312 312 315 317 311 306 307 307 307 309 309 308 307 307 308 309 310 309 308
294 295 297 298 298 296 297 299 299 298 297 297 299 300 299 300 301 301 301 298 298 300 299 298 299 299 299 300 299 299 299 299 300 300 300 300 299 298 300 300 299 299 299 300 302 300 300 301 301 301 301 300 300 299 299 299 299 302 304 306 308 308 307 307 307 307 305 304 306 309 309 312 313 309 305 304 304 304 307 309 308 307 307 307 310 311 310 309
295 294 295 297 297 296 298 300 298 298 298 298 298 299 298 300 301 301 300 299 298 299 300 300 299 299 299 300 299 299 300 299 299 300 300 300 300 300 301 301 300 300 300 301 302 300 300 301 301 300 300 298 300 302 301 300 302 305 306 306 307 306 306 305 304 304 304 303 305 307 308 311 311 309 305 302 302 302 304 306 306 306 306 306 309 311 310 310
293 292 294 296 298 298 298 299 298 298 299 298 297 297 298 299 300 300 299 298 298 299 301 301 300 299 299 299 298 299 299 299 299 300 300 299 300 302 302 301 300 300 300 301 301 300 300 301 301 300 298 297 300 305 305 303 304 303 302 304 306 305 304 303 303 304 304 303 304 307 307 307 307 306 303 301 301 301 301 303 303 305 305 306 308 309 309 309
292 292 294 295 297 298 298 298 298 297 297 296 295 296 297 298 299 299 297 296 296 298 299 300 299 299 299 299 299 299 299 299 299 300 299 300 301 302 301 301 301 301 300 300 301 301 300 300 300 300 299 298 298 300 302 301 300 299 299 301 303 301 301 302 302 303 303 302 304 305 304 303 302 302 301 301 301 300 301 301 301 302 303 305 307 308 307 308
294 295 295 296 296 297 297 296 296 296 296 294 294 295 296 297 297 296 295 295 297 298 299 299 300 300 299 299 299 299 299 299 299 299 299 300 301 301 300 301 300 300 299 300 300 301 300 300 301 300 299 299 298 298 299 299 299 299 299 299 299 299 300 301 302 302 302 301 301 301 301 301 301 300 300 300 300 300 300 300 301 301 301 303 305 306 306 306
294 295 295 295 296 296 296 295 294 294 294 293 293 295 295 295 294 294 295 296 297 298 299 299 300 299 298 298 297 297 298 298 298 298 299 298 298 299 299 300 299 299 300 300 301 301 301 301 300 300 300 299 299 298 298 299 299 299 299 298 299 299 299 301 302 301 300 301 300 300 300 301 301 300 300 300 299 300 299 299 300 300 301 302 303 303 304 305
293 294 293 293 294 295 295 294 293 293 293 292 293 294 294 293 293 294 295 295 296 298 298 299 298 297 295 295 295 295 295 296 296 297 297 296 295 296 297 298 300 300 300 301 301 301 301 301 300 300 300 299 299 298 298 298 298 298 299 299 299 299 299 300 300 300 300 301 300 299 299 300 300 299 299 299 299 299 299 299 300 300 301 302 301 302 302 303
292 294 293 292 294 294 293 293 292 293 294 294 293 293 293 293 293 294 294 294 295 296 297 297 295 294 293 293 293 293 294 295 295 295 295 294 294 295 296 297 299 300 299 299 300 299 300 301 300 300 300 299 299 299 298 298 298 298 298 298 298 298 298 299 299 299 300 300 300 300 300 300 299 299 299 298 299 299 300 301 301 301 301 301 301 302 302 303
294 294 294 293 294 293 292 293 292 293 293 293 293 293 293 293 293 293 292 293 293 293 294 295 293 292 291 291 292 292 292 293 293 293 293 293 294 295 296 297 298 298 298 297 297 298 300 300 300 300 300 300 300 300 299 299 299 299 298 298 298 298 298 298 298 298 299 299 300 300 300 300 299 299 300 300 300 301 301 301 301 301 301 302 302 303 303 303
293 293 293 293 292 292 292 293 293 292 292 292 292 293 293 293 293 292 291 292 292 292 293 293 291 290 290 290 291 291 291 291 292 292 293 293 294 295 295 296 296 296 295 295 296 298 299 300 299 300 300 300 299 300 300 299 298 298 298 297 297 298 298 298 298 298 299 299 300 300 300 301 300 300 300 301 301 301 301 301 301 301 301 303 303 303 303 303
292 292 293 293 292 291 292 293 292 292 292 292 293 293 293 293 292 291 291 292 292 292 292 291 290 290 290 290 291 291 292 292 292 293 293 293 294 294 294 294 294 294 295 295 296 297 298 299 299 299 300 300 300 300 300 299 299 299 298 298 298 298 298 298 298 298 299 299 300 300 300 300 300 301 301 301 301 301 301 300 301 300 301 302 303 303 303 303
Wind_Speed
18 18 17 18 18 18 18 19 19 19 20 20 20 20 21 21 22 22 23 23 23 24 24 25 25 25 26 26 25 27 30 32 30 25 16 11 13 9 6 9 14 18 18 19 17 13 14 13 14 17 15 7 1 1 2 3 2 2 2 3 5 5 6 6 7 7 4 2 4 3 1 6 7 4 2 2 2 2 5 3 3 4 6 1 3 16 32 33
18 18 17 17 18 18 18 19 18 19 19 20 20 20 21 21 21 22 22 23 23 24 24 25 25 26 26 26 27 27 28 30 27 18 7 13 17 13 9 15 18 18 18 19 17 13 10 8 12 14 8 3 2 1 2 1 2 3 2 3 6 6 5 5 6 5 4 4 4 6 3 5 7 5 1 3 4 4 7 1 3 4 5 5 8 22 31 31
18 17 18 18 18 18 18 18 18 19 19 19 20 20 21 21 21 22 22 23 23 24 24 25 25 26 26 27 27 27 27 25 17 6 4 12 19 21 19 20 17 15 17 17 16 14 10 10 13 8 3 2 3 1 1 2 2 3 3 4 6 5 5 4 5 6 6 6 4 8 5 2 6 4 1 4 7 8 9 5 3 3 2 5 9 18 26 28
18 18 18 18 18 18 18 18 19 18 19 19 19 20 20 21 21 21 22 23 23 23 24 25 25 25 26 27 27 28 23 12 5 2 3 12 24 25 24 22 16 15 16 15 16 15 12 12 10 3 1 3 3 1 2 4 2 2 4 5 5 4 5 6 7 7 7 5 3 6 6 5 6 3 2 4 6 6 7 8 10 11 10 10 10 13 20 22
18 18 18 17 17 19 19 19 19 19 19 19 20 20 20 21 21 21 22 22 23 23 23 24 24 25 25 26 26 24 15 3 2 4 7 19 25 23 25 23 16 15 14 14 16 15 14 9 3 1 1 2 3 2 3 5 2 3 5 5 5 4 5 7 6 7 7 5 5 5 6 6 4 3 3 6 7 6 7 9 10 12 15 16 14 14 16 16
19 19 19 18 17 19 19 19 19 19 19 20 20 20 20 21 21 22 22 22 23 22 23 23 23 24 23 26 23 16 6 0 7 8 14 23 21 21 26 22 17 15 14 15 16 14 10 6 3 2 1 1 3 4 5 4 1 4 5 4 5 6 6 6 5 5 4 4 7 6 5 4 2 5 4 6 8 7 6 8 8 8 14 18 17 15 15 16
19 19 19 19 19 19 20 20 20 20 20 20 21 21 21 21 22 22 22 23 22 22 22 22 22 22 23 26 17 8 4 5 15 14 17 22 20 24 27 22 19 20 18 16 14 10 6 6 4 1 1 3 3 4 5 5 3 4 5 5 6 7 7 7 7 7 4 5 7 4 4 4 5 6 2 3 8 7 6 5 6 8 10 14 15 16 17 18
20 20 20 20 20 20 20 20 20 21 21 21 21 21 21 22 23 23 23 23 23 22 21 20 21 20 21 22 12 4 2 6 14 17 18 24 24 26 26 22 21 24 23 17 13 8 5 5 4 1 0 3 2 3 5 6 5 5 5 6 5 6 6 6 7 7 6 5 5 5 6 7 8 4 3 6 8 6 5 4 4 9 9 10 13 15 16 17
21 21 21 21 20 21 21 21 21 21 21 21 22 22 22 23 24 23 23 23 23 22 21 20 19 18 19 15 7 5 5 5 15 19 22 27 26 24 24 21 23 25 22 19 18 10 5 4 4 3 2 4 4 4 4 3 4 4 3 5 5 6 6 6 6 5 5 3 3 5 7 9 7 3 5 8 9 7 3 3 2 10 12 11 12 14 14 15
21 21 22 22 22 22 22 22 22 22 22 22 22 23 24 24 24 24 24 24 22 21 20 18 17 17 16 10 5 4 6 11 21 22 23 26 25 24 23 22 25 25 19 19 20 11 4 4 6 5 4 4 4 4 4 2 4 4 5 6 7 8 7 5 5 5 4 3 4 4 8 11 5 4 6 7 8 7 4 4 2 8 12 13 12 13 13 14
21 21 22 23 23 23 23 23 22 23 23 23 24 24 25 26 26 25 24 21 20 19 17 16 16 14 12 7 2 4 9 19 24 22 22 23 23 24 23 24 25 23 18 16 19 16 9 10 9 5 4 2 3 5 5 4 4 7 7 8 9 8 6 6 6 6 3 4 5 5 7 10 5 5 6 6 7 4 6 7 5 7 9 11 12 12 11 11
21 22 23 24 24 24 24 23 23 23 23 24 25 25 26 27 26 24 21 19 18 18 17 15 13 12 10 3 5 8 17 23 21 19 20 20 20 21 22 22 21 21 17 13 18 22 17 15 11 4 3 3 4 4 4 4 5 7 4 6 9 8 7 8 6 4 3 3 2 3 5 11 10 8 7 7 8 5 5 7 5 7 7 9 10 10 9 11
21 22 23 24 24 24 23 23 23 24 24 25 26 28 27 26 25 22 19 18 18 18 15 12 12 11 6 2 9 15 19 19 17 16 17 18 18 20 21 20 20 20 17 13 18 23 22 18 9 4 4 3 2 4 5 6 5 6 3 3 6 7 8 7 5 4 4 4 2 3 7 12 12 11 7 7 8 8 8 8 8 7 6 7 8 8 9 10
21 22 23 24 25 25 24 24 23 24 24 25 28 28 26 25 24 21 17 18 17 14 10 9 11 7 2 6 14 15 14 15 14 13 17 22 22 21 23 22 21 22 20 17 19 23 23 17 8 5 4 3 3 5 7 6 3 4 4 3 3 4 5 2 3 5 5 5 5 5 9 11 8 8 8 6 8 9 11 10 10 9 7 7 7 8 10 10
22 23 24 24 25 25 25 24 23 23 24 26 28 26 26 26 23 20 18 15 11 10 10 10 8 3 2 7 12 14 14 11 11 14 20 23 20 18 22 24 23 23 22 17 17 20 20 13 6 4 3 3 2 3 5 4 2 2 4 4 2 5 4 4 3 5 6 6 6 9 8 7 5 6 9 8 8 11 13 14 12 12 11 9 8 8 9 10
22 24 26 25 24 25 24 24 23 23 24 26 26 27 28 24 20 17 12 10 12 14 14 8 2 2 1 5 11 15 10 7 13 21 23 20 18 18 20 20 18 18 19 17 16 17 15 8 3 3 3 3 2 1 3 3 4 2 4 5 2 4 3 3 5 5 9 6 4 10 8 3 3 8 11 10 8 9 12 13 14 13 12 12 9 8 9 9
22 24 26 26 25 24 24 23 23 23 24 24 27 30 26 18 14 7 3 11 14 9 3 2 2 2 2 6 11 12 9 13 22 26 25 21 20 21 17 11 9 11 14 16 14 10 7 3 2 3 2 3 3 3 1 5 7 4 3 4 3 3 3 2 5 5 8 8 7 10 11 9 7 7 8 7 6 8 10 12 12 11 10 11 8 7 8 9
22 24 26 27 26 25 24 23 22 23 22 23 28 27 19 12 7 5 7 20 13 5 5 3 1 2 2 9 12 14 17 23 26 25 25 19 16 15 11 6 6 7 7 8 7 2 1 1 2 4 3 4 4 5 6 7 4 4 4 3 4 4 5 6 5 4 3 6 9 10 11 14 11 8 9 8 6 7 10 11 10 10 10 10 8 7 8 9
22 23 25 26 27 26 25 23 22 21 20 24 29 21 13 13 6 3 16 23 10 3 2 3 3 3 5 12 15 21 23 23 21 18 18 17 12 10 9 8 5 4 2 2 3 1 1 2 3 6 6 7 6 7 9 5 0 3 4 4 5 6 6 7 6 7 6 5 9 11 12 13 12 12 13 13 8 7 8 8 7 8 9 9 8 7 8 9
21 23 24 25 27 27 25 25 21 19 19 25 29 19 10 12 5 2 16 14 3 2 3 4 1 1 7 10 15 23 22 14 9 10 16 17 10 7 7 6 1 0 1 2 4 1 1 4 6 9 9 6 6 7 8 7 6 6 4 4 6 6 6 6 5 7 6 5 9 11 13 14 13 13 15 15 12 8 8 7 7 7 7 8 9 9 9 10
21 22 23 24 27 26 26 25 18 16 18 22 24 15 5 6 5 3 9 7 4 4 7 9 6 7 11 14 18 20 12 5 4 8 15 15 6 4 5 1 1 1 1 2 4 1 1 5 10 10 7 5 5 5 6 8 10 9 6 6 7 6 7 6 6 7 4 3 8 9 11 14 14 13 13 12 12 11 10 10 9 9 8 8 9 10 11 8
21 21 22 24 25 26 26 23 14 13 18 19 18 11 3 4 4 2 3 5 7 5 7 10 6 7 13 15 15 10 3 4 7 9 10 12 5 1 2 3 2 4 1 1 2 3 4 7 12 10 5 5 5 5 7 9 10 8 6 6 8 7 7 7 7 8 4 3 7 7 7 11 10 10 10 10 11 11 10 11 10 9 9 8 8 9 9 9
20 21 22 23 24 26 26 19 10 12 18 16 13 9 4 7 5 3 3 2 7 6 4 4 2 4 7 7 6 6 2 2 5 8 8 8 4 0 1 2 2 5 3 0 1 3 5 7 9 8 6 7 7 7 9 8 7 7 6 6 8 8 5 6 5 5 5 4 5 6 6 7 6 6 8 9 9 7 8 10 9 8 8 9 9 8 8 10
20 20 21 23 24 26 25 14 9 16 18 12 9 9 8 8 7 6 4 1 4 6 4 4 3 3 5 5 7 5 2 1 3 7 9 6 3 2 1 2 3 4 3 3 3 5 8 10 8 6 7 8 9 9 9 7 5 7 7 7 8 8 7 7 5 6 8 7 5 5 7 7 5 6 8 6 6 6 7 9 9 8 9 9 8 8 9 9
19 20 21 23 23 27 24 9 9 20 17 6 6 10 12 10 8 7 3 2 3 5 5 4 2 2 6 8 9 5 1 2 4 6 7 4 3 3 2 2 1 2 4 3 3 5 9 9 7 7 8 6 7 8 8 7 6 6 7 9 10 9 9 9 7 5 6 7 6 3 5 6 4 7 9 6 6 8 7 8 10 10 10 10 9 9 9 9
19 19 21 22 23 27 20 5 11 21 12 4 7 13 14 12 10 6 2 3 3 5 5 2 2 3 8 7 8 5 2 3 8 8 6 4 3 2 2 2 0 2 3 2 2 3 4 4 3 7 10 8 7 6 7 7 5 6 5 8 11 10 9 9 7 5 5 5 4 1 3 7 4 5 8 7 8 11 8 8 11 11 10 9 9 9 9 9
19 18 20 21 23 24 14 4 14 16 6 5 10 14 16 14 10 4 3 5 3 4 3 2 1 5 8 8 8 5 2 6 11 7 1 4 6 0 1 3 2 3 2 2 3 1 1 3 4 2 4 6 6 6 6 6 6 6 3 3 7 9 10 9 7 6 5 4 5 2 2 6 7 5 7 7 7 9 8 9 11 10 9 9 8 9 9 10
19 19 19 21 23 19 9 8 14 11 6 10 12 13 15 14 9 3 5 4 2 3 1 2 3 4 7 11 8 2 3 6 5 4 6 8 4 1 1 3 3 4 3 1 4 1 2 2 2 4 3 3 5 5 4 2 3 5 5 5 5 5 7 8 7 7 4 4 7 6 3 5 8 5 5 6 6 8 10 11 11 9 10 10 10 10 11 11
19 19 18 21 22 15 10 10 10 7 9 12 11 11 15 12 6 3 6 2 2 2 1 1 4 4 7 11 7 2 3 3 0 5 10 8 2 1 2 3 3 5 4 2 6 5 3 3 1 1 1 4 5 5 4 2 3 5 7 8 6 3 3 4 5 6 5 6 9 9 6 6 9 4 4 5 6 9 12 10 8 8 9 10 10 11 11 10
19 18 18 20 20 16 14 13 7 6 11 11 10 13 14 8 3 5 4 1 2 3 2 2 4 6 9 10 6 5 5 3 3 5 7 3 2 3 1 2 2 3 3 2 6 8 6 5 5 4 6 5 5 5 5 5 5 4 6 6 6 4 3 3 3 4 5 7 10 12 10 8 9 5 5 5 6 8 8 7 6 7 8 9 9 10 11 10
19 18 18 19 19 16 13 10 7 9 11 10 11 12 9 4 4 5 2 3 2 3 4 4 4 6 12 9 4 5 6 5 5 5 6 5 5 5 4 3 2 2 3 2 3 6 6 4 4 5 6 6 4 5 5 5 4 1 2 4 5 5 4 3 2 3 5 7 8 10 10 9 10 8 5 5 6 6 7 7 7 9 9 10 10 10 10 11
19 19 18 17 15 12 9 8 9 11 10 8 10 7 4 4 4 2 2 4 3 2 3 3 4 8 11 7 3 5 5 5 4 5 6 5 5 5 4 4 3 4 5 5 5 6 5 3 3 5 2 4 2 4 3 3 3 2 1 3 4 4 4 4 4 4 4 5 4 5 7 7 10 11 6 6 7 5 5 7 8 10 11 11 11 11 10 9
21 20 17 14 10 8 7 8 10 10 8 7 6 4 6 5 1 2 3 3 1 3 3 2 5 10 8 5 4 5 4 4 5 6 5 4 4 5 4 3 4 3 2 4 6 6 5 4 4 5 2 2 2 2 2 1 2 3 3 3 5 4 4 4 5 4 4 4 1 4 7 5 7 9 9 11 12 10 11 12 12 12 12 12 11 10 8 8
20 18 15 10 6 5 6 6 7 6 6 5 3 4 7 4 2 2 2 3 3 4 3 3 7 9 5 2 3 3 4 4 5 7 6 5 5 4 4 5 6 3 2 2 4 3 3 4 4 3 2 3 2 3 3 1 2 4 3 3 5 5 5 4 3 3 4 3 2 2 4 5 4 4 6 11 11 10 13 15 14 12 11 11 11 9 9 9
18 14 9 7 7 7 7 6 4 3 3 3 4 5 4 1 3 1 2 4 3 4 5 5 5 4 4 3 3 3 3 3 6 7 5 5 4 3 3 4 6 5 2 3 3 2 1 4 4 3 3 2 1 3 2 1 3 4 3 3 4 5 5 4 4 3 2 4 2 2 4 4 4 6 5 7 6 5 8 11 12 14 13 12 12 12 12 11
17 12 7 8 10 10 11 8 4 1 1 3 5 3 2 3 3 2 2 2 1 4 8 7 2 1 3 4 3 5 3 2 6 6 4 5 4 2 2 2 2 3 2 2 2 2 2 5 7 7 6 3 3 2 3 3 2 1 1 1 2 3 3 4 7 4 3 6 3 3 6 5 4 9 9 10 11 8 8 8 8 11 12 11 11 12 12 11
18 11 6 7 8 10 12 9 3 2 2 4 4 1 1 3 3 3 1 3 1 3 4 4 2 2 3 3 3 5 5 3 5 5 4 4 3 2 2 2 2 2 2 2 1 1 0 6 9 5 5 4 2 3 4 3 0 1 1 2 3 2 2 3 4 4 5 7 5 7 10 7 4 6 5 6 10 10 8 8 8 9 9 9 10 12 12 11
15 8 4 5 5 9 13 7 4 4 2 3 2 1 0 1 2 2 1 2 1 2 1 1 1 1 2 2 4 4 5 4 5 5 4 3 2 2 2 2 2 1 3 2 2 1 0 5 7 2 3 8 6 3 3 4 2 1 1 1 2 1 3 2 3 3 4 6 4 6 9 6 5 5 4 4 6 6 7 6 7 9 9 8 9 12 13 12
9 4 2 2 4 9 11 4 4 4 3 3 0 2 1 2 3 2 2 2 1 0 1 2 1 1 2 2 4 4 4 4 5 4 3 1 2 3 3 2 2 3 4 0 1 2 1 1 6 3 2 7 7 3 3 4 4 4 4 2 1 3 3 2 2 1 3 4 4 4 5 4 4 6 5 5 3 7 8 9 9 9 9 8 9 12 13 11
6 3 1 1 4 8 7 3 4 4 3 2 2 2 1 2 4 4 3 2 1 1 2 2 1 1 2 3 4 3 2 4 4 3 2 1 3 5 2 1 3 7 6 0 2 2 1 1 5 6 5 6 4 1 2 5 5 4 4 3 2 1 1 2 1 0 1 3 4 4 4 3 4 2 1 3 6 7 7 8 8 8 9 8 8 10 11 11
5 3 2 0 2 6 6 3 3 3 2 1 1 2 2 1 2 5 4 1 2 3 2 2 2 2 3 3 3 2 1 3 3 2 2 2 2 3 2 0 3 6 5 3 1 1 1 1 4 7 7 6 6 6 6 8 5 3 4 3 3 2 2 3 3 0 1 2 3 4 5 5 5 1 5 5 5 7 7 7 8 9 9 8 8 8 8 9
4 2 2 2 3 6 4 3 1 1 2 1 2 2 3 2 1 3 3 1 1 2 2 2 3 3 3 3 2 2 2 3 3 2 2 3 3 3 4 4 5 5 3 3 2 1 1 2 3 6 7 7 12 14 11 7 4 2 3 1 1 1 2 2 3 3 4 3 3 4 4 5 5 2 4 3 5 6 6 5 7 10 10 8 8 8 8 8
3 1 3 5 4 3 4 3 3 1 0 2 2 2 3 2 1 2 3 3 2 1 2 1 3 2 3 3 2 1 2 3 4 3 2 3 4 6 7 6 6 5 3 2 2 1 2 1 2 6 7 6 9 10 5 0 3 3 1 1 2 1 2 1 3 4 4 4 4 4 3 4 5 5 7 9 11 10 8 5 4 8 10 9 8 7 7 8
1 3 3 5 3 1 3 1 1 1 2 3 3 4 4 2 1 2 2 3 2 1 0 2 3 3 3 3 1 1 2 3 3 4 3 3 4 6 6 6 5 3 1 1 1 1 2 1 1 5 7 5 5 6 6 4 3 2 2 2 0 2 3 2 2 2 2 5 6 4 3 5 7 10 12 13 14 14 12 8 5 6 8 9 8 8 7 8
2 1 3 4 3 2 1 3 2 0 2 4 4 5 3 2 2 2 3 6 5 2 1 3 3 2 3 3 3 3 3 3 3 3 3 3 3 5 5 5 4 2 4 8 5 0 1 2 1 1 4 5 5 4 2 5 6 4 4 3 3 4 5 3 2 2 4 7 7 3 4 9 12 14 16 14 12 14 15 13 10 9 8 7 7 8 9 8
2 1 2 4 4 3 1 1 2 1 1 4 4 3 1 2 3 3 5 6 3 2 2 3 3 2 3 4 4 4 3 4 5 4 4 5 4 3 3 4 4 6 12 17 9 1 1 2 4 5 6 7 8 7 4 5 8 9 11 11 9 7 6 4 2 4 6 6 6 6 9 13 16 17 18 16 13 13 14 14 13 12 11 10 8 8 10 9
2 0 0 1 2 3 2 2 3 2 1 2 2 3 2 2 3 4 4 3 1 2 2 3 2 1 3 5 6 5 5 5 6 7 7 7 5 4 7 6 7 12 16 14 5 2 2 3 5 9 10 11 12 12 9 7 10 12 15 17 15 10 6 6 8 10 7 3 6 11 11 11 15 18 18 18 15 13 13 13 12 11 12 13 12 12 12 12
1 1 1 1 0 0 1 3 3 2 1 1 1 2 3 3 3 3 3 3 3 3 2 1 1 5 8 9 7 7 9 8 7 6 5 7 7 8 9 6 7 10 9 5 2 2 2 5 6 9 12 14 14 14 12 10 11 12 14 16 17 14 10 10 13 14 9 5 10 15 13 12 13 17 19 19 18 15 13 12 10 10 12 14 16 16 15 15
1 0 1 1 1 2 1 3 3 1 1 2 1 2 1 3 4 3 2 4 4 3 2 3 4 7 7 7 5 7 8 7 7 7 7 9 9 8 9 7 4 2 3 3 4 1 0 3 4 7 11 13 13 13 13 12 12 13 15 16 17 17 14 12 14 15 12 11 14 18 20 17 14 16 21 21 18 14 11 10 10 12 13 13 15 17 16 16
1 1 1 2 3 1 1 2 1 0 1 2 3 3 2 3 4 3 2 2 4 4 3 3 5 7 7 6 4 7 9 7 9 11 9 10 10 7 6 6 4 4 5 6 6 1 1 3 4 4 8 12 14 13 14 14 13 14 16 16 16 15 14 13 13 13 11 12 14 16 17 17 14 16 18 19 16 13 11 13 13 12 11 11 13 14 15 16
1 1 3 2 2 2 2 1 1 1 2 2 3 3 3 3 2 3 3 4 6 5 2 2 6 7 6 6 7 10 10 8 10 12 9 9 10 8 6 6 7 10 10 8 5 3 3 4 6 6 7 11 13 13 13 13 13 15 17 17 14 12 12 13 11 8 8 10 12 12 11 13 14 14 13 14 16 15 13 13 13 12 9 9 10 12 14 15
3 1 2 3 1 2 2 1 0 1 2 3 4 4 3 2 1 2 3 3 4 4 3 2 6 6 6 9 10 11 10 8 9 10 9 9 11 11 11 11 12 12 11 8 6 5 5 5 5 5 6 9 13 13 11 8 9 11 10 10 11 10 11 12 11 10 11 10 8 9 10 12 14 13 12 14 17 17 14 11 10 11 10 7 9 11 13 14
Wind_Direction
12 11 8 7 5 3 2 1 0 358 358 356 356 355 353 353 351 351 350 348 347 345 344 343 342 343 341 342 340 337 335 329 326 321 314 337 343 339 326 318 333 339 338 336 342 344 334 337 343 344 346 343 190 234 238 193 154 139 166 202 217 206 206 196 194 204 189 254 282 303 242 199 241 257 231 107 122 151 115 61 3 14 7 22 155 145 151 159
9 9 7 4 2 1 359 357 357 355 354 353 353 352 351 351 349 349 347 346 346 343 344 342 342 342 341 342 339 339 336 326 322 312 327 41 32 20 352 327 336 346 343 340 348 351 337 325 329 338 347 334 294 285 263 226 168 172 167 214 224 208 209 203 203 217 213 239 268 303 301 198 228 243 212 184 198 158 130 51 11 48 17 47 119 141 149 157
8 7 6 3 360 358 356 355 353 352 351 350 350 348 348 348 347 346 345 345 343 342 343 341 342 341 341 342 338 339 335 324 320 315 70 46 13 3 351 338 340 346 337 335 337 331 319 304 308 321 342 305 281 278 275 244 226 197 188 235 236 227 247 247 242 241 242 254 278 295 298 202 243 242 203 210 197 183 170 172 138 153 184 135 137 145 150 157
8 6 5 2 359 357 355 353 350 350 349 348 347 346 345 344 344 343 342 342 340 341 340 340 342 340 342 341 336 338 332 321 325 333 48 355 347 349 352 350 344 339 335 332 331 326 324 310 297 293 249 290 287 296 249 228 229 204 197 223 231 232 260 258 255 259 266 271 262 283 296 285 274 252 217 181 176 214 211 192 183 182 176 160 158 154 156 161
8 6 3 0 0 358 354 351 349 347 346 345 344 343 342 341 340 339 338 338 338 339 338 340 340 340 344 339 337 339 331 337 350 319 340 342 346 346 347 354 347 340 336 333 335 335 337 324 305 349 234 257 293 307 249 232 211 242 230 220 221 221 256 259 251 256 267 275 270 280 278 269 287 289 236 172 182 226 226 217 206 181 167 162 163 163 162 165
9 6 3 0 1 359 354 352 349 346 344 343 341 340 339 338 336 335 334 334 335 336 337 338 338 340 343 338 340 355 11 72 290 307 340 344 352 347 344 353 353 348 334 329 340 344 346 344 356 357 282 260 256 236 256 267 226 250 263 254 237 223 239 265 263 261 274 278 266 260 265 275 294 275 243 180 210 235 232 224 209 179 168 163 159 162 166 171
8 6 4 1 359 358 354 352 349 346 343 341 339 338 336 335 333 332 331 332 333 333 334 335 338 341 341 341 349 29 71 260 288 316 342 341 340 336 337 346 351 353 345 338 346 348 347 344 327 241 251 289 249 237 273 301 281 244 264 274 262 243 236 252 263 274 287 259 250 261 312 301 247 256 286 222 237 247 272 261 185 165 159 160 159 167 174 177
8 5 2 360 357 356 353 351 349 346 343 340 337 335 333 332 330 328 328 328 330 330 332 331 335 339 342 350 2 11 270 266 315 330 329 327 325 325 330 338 343 349 348 344 348 346 327 328 308 262 310 273 273 293 299 317 290 237 239 264 271 261 252 265 274 282 282 262 261 289 295 270 242 260 308 258 256 256 276 325 144 150 147 163 173 177 180 182
7 4 2 359 355 354 352 349 348 345 342 339 336 333 330 329 327 327 327 326 327 327 327 328 332 337 341 355 17 336 288 310 336 326 319 326 326 322 326 333 337 341 343 336 338 344 333 330 322 328 308 267 293 302 302 323 272 235 249 285 293 288 288 292 282 271 274 269 280 292 278 265 254 278 287 246 246 253 249 343 105 148 161 175 183 185 187 189
5 4 2 359 355 353 350 347 346 343 341 338 335 332 328 327 327 327 327 326 326 325 326 328 330 334 340 0 20 318 297 329 332 324 325 331 329 324 322 325 329 333 334 326 326 335 336 317 313 303 269 262 280 278 275 249 263 297 306 292 274 272 282 280 273 269 277 272 240 244 266 269 249 212 263 260 250 239 214 263 197 155 176 183 187 192 191 196
4 3 1 358 356 352 349 346 343 341 340 337 334 330 328 328 328 328 329 329 329 327 327 328 329 332 340 1 359 269 308 326 328 329 333 336 334 330 324 320 320 321 323 320 313 312 307 303 315 310 261 279 312 290 261 243 293 311 312 304 280 270 273 253 260 268 255 269 228 193 258 272 247 208 223 247 262 231 200 239 216 175 193 191 192 195 193 202
3 2 360 357 355 351 348 345 341 341 339 336 333 330 330 329 328 328 330 333 333 329 325 327 327 322 330 340 214 276 318 325 326 330 335 337 335 333 332 326 321 315 311 308 301 304 302 301 317 312 262 320 326 290 264 293 317 301 305 306 293 296 281 244 237 239 185 258 238 142 280 265 245 233 199 212 252 261 244 255 236 202 204 198 197 197 198 205
2 1 359 356 354 351 348 344 342 340 337 334 331 331 331 329 328 327 329 335 335 328 323 323 313 309 333 278 266 305 324 324 322 324 335 341 332 331 334 328 324 319 313 303 294 303 306 300 300 279 284 322 280 268 299 325 314 292 290 242 279 303 280 239 201 201 199 234 173 108 270 253 244 246 220 204 226 251 261 261 257 235 214 208 203 198 203 206
2 1 358 355 353 351 349 345 342 339 335 332 329 331 330 327 326 323 326 334 335 334 331 322 303 304 10 271 288 321 331 320 317 320 338 339 328 328 331 327 323 319 320 313 299 303 307 301 293 276 274 232 248 299 320 321 286 282 289 239 231 253 261 270 184 178 205 229 151 145 255 251 243 260 259 231 200 222 244 243 247 245 231 220 208 204 207 206
2 1 358 356 353 352 349 346 342 337 333 330 330 332 330 326 322 321 329 332 330 326 322 319 303 310 30 279 297 328 327 316 313 320 331 331 325 323 323 323 322 317 317 317 307 304 303 304 301 275 267 249 247 310 319 316 295 250 259 268 228 220 253 330 289 178 201 243 163 171 250 263 222 241 257 245 208 212 235 239 237 238 236 229 217 211 211 212
1 360 358 356 353 352 350 346 342 336 333 333 335 335 330 326 323 328 333 321 315 306 299 301 291 101 99 282 314 328 327 320 315 319 322 321 317 309 307 313 315 316 317 314 314 308 299 303 293 233 246 277 212 215 318 317 293 244 223 243 238 235 258 314 291 216 205 236 197 198 235 277 202 226 239 240 227 217 232 242 240 236 235 233 225 216 214 214
359 359 357 355 354 352 350 347 342 339 340 340 340 338 335 335 338 355 3 331 335 326 291 208 191 134 212 291 326 327 319 316 317 317 314 314 311 301 297 300 300 315 323 317 316 312 293 274 254 242 207 232 197 167 234 250 251 249 237 251 253 242 225 244 293 269 206 206 226 222 230 239 233 243 252 249 234 227 237 243 244 244 240 239 234 226 224 217
356 356 355 355 354 352 351 348 344 345 346 344 344 343 344 2 24 93 9 350 4 58 91 92 33 102 263 311 322 312 310 313 315 313 311 321 321 300 283 272 288 311 333 331 318 308 281 257 241 254 221 208 204 182 205 225 220 201 213 246 259 243 227 228 252 269 218 202 225 231 237 241 241 253 267 261 214 208 237 241 244 249 246 247 241 230 231 226
354 354 353 353 354 353 351 349 347 350 349 347 350 351 5 26 66 124 354 359 32 82 12 346 14 90 281 301 300 304 313 314 313 310 314 328 325 304 282 270 283 308 346 1 301 221 184 279 250 241 230 216 210 208 222 240 281 197 209 226 241 241 239 237 235 250 261 250 239 236 244 246 240 243 252 256 236 204 233 244 246 249 248 250 244 237 233 230
352 352 351 352 354 353 352 351 349 355 357 352 357 5 17 19 30 329 347 358 82 165 273 275 304 215 277 290 294 310 324 327 315 311 326 332 318 310 301 270 227 333 299 262 264 254 182 237 241 236 236 232 222 226 239 264 287 275 274 272 253 250 262 256 243 251 247 245 251 240 244 248 239 236 239 248 251 235 236 246 249 249 248 248 241 240 236 233
351 352 350 351 353 353 353 351 352 3 2 359 10 24 37 15 12 330 339 325 258 239 247 260 255 243 264 275 291 312 330 346 310 306 333 343 332 314 311 295 41 293 236 244 260 273 232 238 243 241 247 257 238 228 242 254 264 268 273 277 272 259 262 261 256 269 247 218 264 254 246 250 239 234 236 240 249 247 241 242 247 247 246 250 243 241 238 237
352 351 351 350 352 353 352 353 359 8 3 8 28 48 84 34 17 288 332 307 289 278 250 267 264 251 269 277 292 314 325 318 311 309 342 358 357 335 334 5 332 282 286 17 305 280 254 242 249 253 263 269 250 236 242 244 247 252 253 261 268 261 268 275 264 271 258 210 271 277 257 257 247 238 238 234 239 244 245 243 244 243 243 250 246 241 240 240
350 349 352 351 351 352 351 355 2 2 2 11 35 54 45 19 9 327 344 281 293 302 261 274 258 260 291 295 312 342 340 305 306 307 339 1 350 18 334 325 283 289 303 159 228 276 262 257 262 257 246 249 248 243 245 253 249 237 236 241 253 257 261 271 274 295 289 237 261 297 291 272 261 254 249 240 236 241 255 257 252 244 237 241 242 237 233 232
349 349 351 351 351 350 349 353 357 355 357 6 32 35 14 2 2 354 354 191 298 297 264 265 241 252 295 312 325 332 322 262 251 300 334 4 335 308 249 259 284 300 277 228 224 246 256 268 281 270 250 241 236 239 241 250 254 236 232 233 247 253 238 247 282 314 303 281 270 295 302 280 240 241 255 250 240 235 243 254 262 261 249 246 248 244 235 231
350 349 349 351 351 348 348 354 357 353 352 4 25 7 359 354 354 360 12 51 322 288 289 285 226 278 305 317 322 312 303 280 241 279 315 342 317 305 299 277 294 259 256 267 254 247 260 269 274 264 259 247 233 240 236 232 251 254 234 227 240 253 249 255 272 285 288 286 278 267 281 277 224 224 247 247 244 243 229 230 244 250 249 249 251 248 241 239
348 347 348 350 350 348 351 3 348 348 348 2 358 344 343 343 345 359 43 45 340 289 327 332 179 334 326 328 325 327 28 304 295 306 308 328 326 280 296 310 271 257 281 308 277 257 274 300 301 255 249 246 242 249 241 224 239 255 229 219 230 239 247 252 249 242 239 257 278 174 227 267 261 231 243 234 238 247 240 234 240 241 244 244 244 248 245 243
342 344 346 347 349 349 349 335 336 341 343 330 331 329 329 332 340 0 65 38 348 284 317 309 296 355 340 330 331 347 2 305 318 330 306 333 333 250 275 295 280 308 335 336 281 219 189 335 4 347 273 254 248 254 246 223 229 249 259 247 233 229 237 236 226 234 235 248 284 284 216 267 271 244 231 218 235 260 261 251 248 245 248 248 246 246 245 246
338 340 343 343 347 349 341 322 325 329 336 324 322 322 321 326 334 16 82 58 322 297 308 276 316 355 337 329 343 37 276 307 337 315 311 336 340 96 316 275 251 286 301 258 258 230 72 357 25 59 21 278 254 276 300 305 252 264 311 306 268 245 245 234 223 234 237 242 259 248 208 261 270 247 211 208 225 258 257 247 248 246 243 247 247 243 240 241
335 337 340 339 341 347 342 330 316 316 337 331 324 320 316 323 339 51 74 86 295 333 210 282 331 330 337 339 348 20 309 328 72 285 319 345 15 67 292 251 240 272 273 223 249 274 344 344 338 96 286 267 254 271 318 341 265 287 321 307 294 318 307 270 240 228 220 224 239 232 197 235 269 250 191 217 220 234 247 249 249 247 241 243 245 246 246 243
335 335 336 335 337 341 336 333 323 313 330 327 315 314 316 327 37 62 46 249 281 320 282 9 352 320 344 352 336 338 349 328 286 307 324 327 333 347 291 247 231 248 273 253 251 271 284 284 281 243 225 233 236 237 242 241 245 305 333 302 293 308 303 301 279 221 222 230 230 223 197 209 261 247 186 215 213 209 237 259 260 255 253 250 246 245 247 245
335 333 332 332 333 333 325 330 339 329 326 316 306 315 330 1 71 81 57 253 267 313 333 3 1 335 344 350 324 323 342 320 311 345 339 325 344 352 358 359 316 296 339 336 272 279 276 253 257 253 219 194 211 231 217 219 230 342 342 288 294 284 251 266 273 219 227 233 225 217 194 196 243 247 197 220 234 205 214 243 254 259 256 251 249 245 243 242
334 332 329 328 325 320 309 316 332 336 330 313 313 332 42 45 34 104 264 305 313 312 331 340 347 340 332 336 335 317 336 329 324 356 345 342 357 345 4 19 338 347 0 351 332 314 293 253 283 308 252 156 190 253 210 180 197 203 228 262 266 254 244 230 224 228 232 236 226 181 170 195 242 254 239 240 256 247 240 246 245 252 254 250 250 250 246 244
334 334 332 332 329 324 323 318 320 331 327 317 331 23 81 69 11 229 274 316 281 274 314 350 335 327 323 344 341 317 341 336 332 355 344 351 13 348 351 358 349 0 332 325 339 340 331 315 338 348 333 72 57 273 287 50 205 211 195 220 226 227 255 235 216 239 244 249 278 153 173 216 251 254 242 234 237 239 247 250 243 243 249 251 253 257 260 255
336 338 338 346 3 355 345 326 315 327 324 328 18 53 61 71 237 270 309 276 258 285 320 350 322 318 333 352 312 331 5 318 329 357 346 358 19 351 338 347 358 3 282 323 352 356 346 311 334 9 336 0 5 244 261 352 264 242 210 209 227 230 253 256 235 257 262 282 309 190 198 212 222 247 236 230 236 240 248 255 255 253 253 255 261 270 272 265
339 345 352 18 50 42 21 5 346 340 319 356 57 66 69 140 239 284 272 253 282 316 313 314 313 326 340 315 307 16 36 302 331 353 344 356 357 316 330 351 357 353 341 3 356 353 305 264 281 296 267 280 285 250 238 230 257 249 195 185 229 233 236 266 279 264 277 307 281 212 238 225 242 299 290 262 279 278 257 262 264 262 260 260 263 265 264 262
346 2 37 52 54 47 30 19 20 26 327 62 64 62 133 198 214 181 218 272 340 319 315 315 324 26 339 318 325 352 352 302 335 343 333 344 329 294 347 334 322 340 9 38 331 331 337 285 296 314 300 222 175 250 243 220 255 333 123 222 280 269 215 248 275 248 225 274 257 203 251 261 278 287 280 270 274 270 261 269 269 267 270 271 269 268 267 267
351 4 37 44 49 45 25 15 51 91 52 74 79 68 194 206 200 180 247 333 305 297 321 323 335 355 326 314 311 326 331 323 347 346 333 342 325 302 359 302 251 322 355 53 326 287 312 290 290 298 296 278 259 282 262 240 303 62 270 303 344 338 184 199 262 249 230 253 239 217 239 241 232 261 289 280 265 263 267 276 281 279 280 278 274 271 268 262
348 356 17 33 62 42 18 17 93 107 71 68 57 323 240 216 220 199 276 329 304 329 337 251 301 342 329 317 296 315 332 330 353 347 325 343 306 291 9 329 265 295 314 20 5 280 161 300 291 237 257 299 326 359 328 328 338 270 267 358 47 273 251 205 223 248 248 250 252 237 238 227 207 231 280 275 266 292 306 314 319 305 300 304 303 300 291 276
352 12 15 39 78 34 18 48 109 88 77 80 88 275 280 259 268 261 279 302 284 355 285 231 212 331 339 314 286 314 337 328 344 337 314 352 298 312 20 342 291 309 299 212 148 288 41 304 289 292 340 323 334 23 18 336 327 330 340 3 160 234 258 253 229 288 281 263 281 273 249 243 223 219 237 255 308 356 353 354 348 326 319 326 329 327 318 306
16 49 324 41 78 25 11 94 87 55 74 111 193 231 273 272 287 279 254 264 257 224 251 236 197 308 301 269 278 310 329 305 315 309 270 270 296 308 323 214 315 326 322 240 167 295 4 179 271 302 340 340 325 10 3 320 322 339 338 335 331 295 288 304 273 217 265 269 283 276 259 256 247 233 38 11 15 14 3 355 338 323 323 321 327 336 335 329
35 62 304 74 74 354 357 56 57 58 83 77 189 237 290 258 283 288 271 222 211 230 241 238 226 246 260 268 289 293 270 288 284 230 243 267 281 291 268 169 341 325 332 355 351 342 353 237 270 298 317 321 286 269 280 284 281 283 287 313 342 320 322 318 283 204 6 308 294 289 288 274 261 350 59 49 12 351 340 338 326 316 318 318 320 327 333 334
59 81 293 342 290 297 5 49 318 124 103 327 218 237 297 309 273 289 312 16 212 249 306 280 244 239 247 261 272 252 254 275 262 236 242 245 228 235 262 313 336 324 325 321 294 157 182 239 269 280 285 285 282 285 282 258 226 221 255 281 16 337 352 334 306 336 348 308 278 272 273 269 269 340 32 3 338 324 299 301 318 315 314 320 316 311 322 328
85 197 293 8 324 267 80 54 312 20 140 267 266 282 305 314 283 286 326 355 338 328 8 304 260 246 238 237 233 244 284 281 254 243 255 257 243 241 263 303 327 327 331 319 297 233 227 245 294 287 288 286 284 296 312 230 128 95 10 344 22 3 27 7 290 301 312 293 287 280 264 270 293 326 337 327 323 316 295 276 291 307 311 316 313 310 323 330
126 236 277 5 3 134 91 90 289 323 287 313 346 318 302 280 260 303 335 325 301 270 242 263 251 240 241 242 228 240 296 297 241 231 249 252 248 255 272 294 302 309 301 261 303 329 279 289 16 314 313 329 335 340 357 6 33 41 332 308 81 5 2 349 264 269 273 255 252 257 265 272 287 303 310 313 315 313 306 295 275 278 294 304 310 314 319 324
12 313 284 333 16 75 122 162 140 294 317 7 340 299 316 321 270 284 303 291 271 221 210 260 250 245 264 273 264 245 245 244 238 257 266 248 265 284 286 279 268 257 257 264 269 149 218 244 142 316 302 300 309 317 331 333 327 313 296 277 269 301 305 286 275 277 259 248 241 235 268 275 282 293 299 303 308 304 303 308 305 292 285 287 298 309 312 317
52 40 304 331 9 46 83 143 63 24 16 18 326 291 358 332 294 292 287 284 266 208 220 258 263 264 266 279 284 273 255 234 235 259 279 276 284 292 296 293 271 259 270 276 277 170 152 249 195 202 234 248 262 264 260 301 303 291 291 288 276 264 250 242 248 245 247 259 258 235 243 267 281 288 291 294 295 293 296 301 303 303 305 304 299 297 300 302
81 176 262 342 342 12 20 15 37 47 18 10 319 295 314 304 312 310 279 267 290 284 253 227 232 333 351 348 336 309 308 299 269 268 279 285 296 296 294 293 270 266 273 274 266 153 179 253 218 214 232 243 253 262 266 271 272 273 281 283 280 270 243 225 231 240 248 282 276 252 236 247 269 275 278 282 282 282 284 288 295 304 308 306 303 300 298 295
82 227 158 123 239 328 14 331 358 35 348 342 255 281 302 307 321 309 288 299 307 305 302 241 13 31 13 358 345 313 312 312 291 289 309 312 316 315 306 288 257 271 285 281 259 141 187 243 226 220 240 247 248 255 258 253 254 259 263 270 277 277 258 240 245 252 250 239 259 267 260 245 254 266 270 273 275 279 286 295 304 304 298 299 301 303 302 298
81 146 314 14 67 174 206 291 304 30 9 323 265 250 265 286 287 278 305 328 313 314 339 318 339 13 360 344 337 306 304 306 293 301 324 315 308 310 309 299 270 292 15 340 307 336 185 257 233 225 249 255 251 251 252 249 251 257 259 261 267 270 264 255 255 257 252 239 247 264 270 265 259 264 269 273 278 286 296 300 296 290 288 291 294 297 298 297
94 125 285 15 17 311 275 280 249 60 346 285 258 253 234 253 281 306 340 308 287 304 335 312 318 337 329 318 308 280 276 283 286 292 305 306 303 305 303 298 301 327 337 317 302 285 171 271 285 280 274 271 265 256 245 239 242 251 258 259 259 268 274 266 258 258 256 252 251 259 270 274 267 261 267 276 283 287 289 286 282 279 277 280 285 288 292 296
221 182 167 97 4 280 256 257 146 54 313 234 220 250 249 236 269 332 319 234 239 269 295 316 315 322 316 304 289 275 273 269 267 273 280 283 288 295 291 285 298 304 299 287 273 232 208 264 288 284 273 272 271 262 249 241 241 247 256 264 266 268 271 265 259 252 244 252 261 261 261 266 266 263 267 273 276 276 273 273 277 279 276 275 280 285 288 291
221 237 151 117 61 233 204 270 69 98 265 228 213 234 252 248 270 7 325 273 247 243 225 313 315 317 317 303 289 277 274 268 264 272 277 273 274 277 272 268 270 273 272 271 268 246 232 253 270 259 263 273 269 265 261 254 253 253 248 254 260 254 252 259 261 251 238 238 251 253 246 250 261 267 268 269 273 276 274 270 273 283 287 278 270 277 282 282